Simultaneous Nadir Overpasses (SNOs) Predictions

Prediction of SNOs between NOAA-19 and METOP-C Satellite Orbit:

Table of predicted SNOs for the next 14.0 days since TLE Epoch: 4/16/2022
Index Date (NOAA-19) Time (NOAA-19) Lat,Lon (NOAA-19) SZA (NOAA-19 ) Date (METOP-C) Time (METOP-C) Lat,Lon (METOP-C) SZA (METOP-C ) Distance(km) Time Diff (sec)
1 04/25/2022 14:18:56 80.81, -2.05 69.02 04/25/2022 14:20:04 80.81, -2.14 69.04 1.47 68
2 04/25/2022 15:10:01 -80.81, 165.20 110.99 04/25/2022 15:10:44 -80.81, 165.22 110.97 0.56 43
3 04/25/2022 16:00:56 80.81, -27.55 69.00 04/25/2022 16:01:26 80.80, -27.63 69.00 1.67 30
4 04/25/2022 16:52:01 -80.81, 139.70 111.01 04/25/2022 16:52:06 -80.81, 139.73 111.01 0.81 5
5 04/25/2022 17:42:55 80.80, -52.68 69.01 04/25/2022 17:42:47 80.81, -52.78 69.00 2.09 8
6 04/25/2022 18:34:00 -80.80, 114.57 111.01 04/25/2022 18:33:27 -80.82, 114.58 111.01 1.50 33
7 04/25/2022 19:24:55 80.80, -78.18 68.98 04/25/2022 19:24:09 80.81, -78.27 68.96 1.67 46



Historial Predications of SNOs between NOAA-19 and METOP-C
